User: anonymous   Login
Location: *
(48.8489°N, 2.3218°E)
Time: 12:16:23
(UTC+00:00)
Language:

Lacrosse 4 Rocket - Orbit

View from above orbital plane
View from above orbital plane
View from above satellite
View from above satellite

Ground track
Ground track

The orbit data is extracted from the following two-line orbital elements,

1 26474U 00047B   19288.66636431 +.00000052 +00000-0 +15454-4 0  9997
2 26474 067.9956 032.1930 0051203 109.6967 250.9709 14.95867831042486
Epoch (UTC): 15 October 2019 15:59:33
Eccentricity: 0.0051203
inclination: 67.9956°
perigee height: 544 km
apogee height: 615 km
right ascension of ascending node: 32.1930°
argument of perigee: 109.6967°
revolutions per day: 14.95867831
mean anomaly at epoch: 250.9709°
orbit number at epoch: 4248

The dashed part of the orbit path shows where the satellite is in the earth's shadow,  

DLR